Location: Chequamegon National Forest
(46.1070°N, 90.8420°W)
Time: 04:46:08
(UTC-05:00)

ISS - All Passes

Search period start: 31 July 2016 00:00
Search period end: 10 August 2016 00:00
Orbit: 401 x 404 km, 51.6° (Epoch: 31 July)

Date Brightness Start Highest point End Pass type
(mag) Time Alt. Az. Time Alt. Az. Time Alt. Az.
31 Jul - 00:59:37 10° WNW 01:02:46 43° NNE 01:05:55 10° E visible
31 Jul - 02:36:06 10° WNW 02:39:14 42° SW 02:42:19 10° SE night (unlit)
31 Jul - 19:18:12 10° S 19:20:02 14° SE 19:21:52 10° E daylight
31 Jul - 20:52:47 10° WSW 20:56:02 87° SSE 20:59:19 10° ENE daylight
31 Jul - 22:29:44 10° WNW 22:32:44 32° N 22:35:44 10° ENE visible
01 Aug - 00:06:41 10° WNW 00:09:42 34° N 00:12:43 10° ENE visible
01 Aug - 01:43:06 10° WNW 01:46:20 75° SSW 01:49:35 10° SE visible
01 Aug - 03:20:58 10° WSW 03:22:16 12° SW 03:23:34 10° SSW night (unlit)
01 Aug - 19:59:58 10° SW 20:03:08 50° SE 20:06:19 10° ENE daylight
01 Aug - 21:36:33 10° W 21:39:39 39° NNW 21:42:45 10° ENE visible
01 Aug - 23:13:39 10° WNW 23:16:36 30° N 23:19:32 10° ENE visible
02 Aug - 00:50:08 10° WNW 00:53:23 68° NNE 00:56:39 10° ESE visible
02 Aug - 02:27:01 10° W 02:29:34 21° SW 02:32:05 10° S night (unlit)
02 Aug - 19:07:26 10° SSW 19:10:18 29° SE 19:13:11 10° E daylight
02 Aug - 20:43:24 10° W 20:46:36 54° NNW 20:49:49 10° ENE daylight
02 Aug - 22:20:33 10° WNW 22:23:28 29° N 22:26:24 10° ENE visible
02 Aug - 23:57:13 10° WNW 00:00:22 46° NNE 00:03:32 10° E visible
03 Aug - 01:33:44 10° WNW 01:36:46 36° SW 01:39:47 10° SSE visible
03 Aug - 18:15:23 10° S 18:17:32 17° SE 18:19:43 10° E daylight
03 Aug - 19:50:21 10° WSW 19:53:37 83° NNW 19:56:53 10° ENE daylight
03 Aug - 21:27:23 10° WNW 21:30:21 31° N 21:33:19 10° ENE visible
03 Aug - 23:04:15 10° WNW 23:07:18 36° NNE 23:10:22 10° E visible
04 Aug - 00:40:40 10° WNW 00:43:54 64° SSW 00:47:07 10° SE visible
04 Aug - 18:57:28 10° SW 19:00:41 59° SSE 19:03:54 10° ENE daylight
04 Aug - 20:34:11 10° W 20:37:15 37° NNW 20:40:19 10° ENE daylight
04 Aug - 22:11:14 10° WNW 22:14:12 31° N 22:17:10 10° ENE visible
04 Aug - 23:47:42 10° WNW 23:50:58 78° NNE 23:54:13 10° ESE visible
05 Aug - 01:24:45 10° W 01:27:04 18° SW 01:29:22 10° S night (unlit)
05 Aug - 18:04:51 10° SSW 18:07:49 33° SE 18:10:48 10° ENE daylight
05 Aug - 19:41:00 10° W 19:44:11 49° NNW 19:47:22 10° ENE daylight
05 Aug - 21:18:09 10° WNW 21:21:04 29° N 21:23:59 10° ENE visible
05 Aug - 22:54:45 10° WNW 22:57:58 51° NNE 23:01:09 10° E visible
06 Aug - 00:31:21 10° WNW 00:34:17 31° SW 00:37:12 10° SSE visible
06 Aug - 17:12:37 10° S 17:15:02 19° SE 17:17:27 10° E daylight
06 Aug - 18:47:55 10° WSW 18:51:10 73° NNW 18:54:26 10° ENE daylight
06 Aug - 20:25:00 10° WNW 20:27:56 30° N 20:30:54 10° ENE daylight
06 Aug - 22:01:48 10° WNW 22:04:53 38° NNE 22:07:58 10° E visible
06 Aug - 23:38:13 10° WNW 23:41:26 55° SSW 23:44:37 10° SE visible
07 Aug - 16:21:23 10° SSE 16:22:19 11° SE 16:23:15 10° ESE daylight
07 Aug - 17:54:58 10° SW 17:58:12 69° SSE 18:01:28 10° ENE daylight
07 Aug - 19:31:47 10° W 19:34:49 35° NNW 19:37:52 10° ENE daylight
07 Aug - 21:08:48 10° WNW 21:11:47 32° N 21:14:46 10° ENE visible
07 Aug - 22:45:14 10° WNW 22:48:30 88° NNE 22:51:46 10° ESE visible
08 Aug - 00:22:31 10° W 00:24:32 15° SW 00:26:32 10° S visible
08 Aug - 17:02:15 10° SW 17:05:19 39° SE 17:08:23 10° ENE daylight
08 Aug - 18:38:35 10° W 18:41:44 44° NNW 18:44:54 10° ENE daylight
08 Aug - 20:15:44 10° WNW 20:18:39 29° N 20:21:34 10° ENE daylight
08 Aug - 21:52:17 10° WNW 21:55:31 57° NNE 21:58:43 10° ESE visible
08 Aug - 23:28:58 10° W 23:31:47 27° SW 23:34:33 10° SSE visible
09 Aug - 16:09:53 10° SSW 16:12:30 22° SE 16:15:07 10° E daylight
09 Aug - 17:45:27 10° WSW 17:48:42 65° NNW 17:51:57 10° ENE daylight
09 Aug - 19:22:34 10° WNW 19:25:31 30° N 19:28:27 10° ENE daylight
09 Aug - 20:59:19 10° WNW 21:02:27 41° NNE 21:05:34 10° E visible
09 Aug - 22:35:47 10° WNW 22:38:55 47° SW 22:42:04 10° SE visible
